Regional Weather Roundup
Issued by NWS Glasgow, MT

Home | Current Version | Previous Version | Text Only | Print | Product List | Glossary On
Versions: 1 2 3 4 5 6 7 8 9 10 11 12 13 14 15 16 17 18 19 20 21 22 23 24 25 26 27 28 29 30 31 32 33 34 35 36 37 38 39 40 41 42 43 44 45 46 47 48 49 50
000
ASUS45 KGGW 300815
RWRGGW
HOURLY REGIONAL WEATHER ROUNDUP FOR NORTHEAST MONTANA
NATIONAL WEATHER SERVICE GLASGOW MONTANA
200 AM MDT SAT JUL 30 2016

NOTE: "FAIR" INDICATES FEW OR NO CLOUDS BELOW 12,000 FEET WITH NO
SIGNIFICANT WEATHER AND/OR OBSTRUCTIONS TO VISISBILITY.

NORTHEAST MONTANA


CITY           SKY/WX    TMP DP  RH WIND       PRES   REMARKS
GLASGOW        CLEAR     61  54  77 E8        29.91F
PLENTYWOOD       N/A     62  53  72 SE2         N/A
WOLF POINT     CLEAR     58  54  86 CALM      29.93S
JORDAN           N/A     64  56  75 E3        29.93F
WINNETT          N/A     59  51  75 N1          N/A
SIDNEY         CLEAR     56  47  71 NW3       29.93F
GLENDIVE       CLEAR     60  51  72 N6        29.95F
SCOBEY           N/A     55  40  56 CALM      29.93F
OPHEIM           N/A     61  52  72 S1        29.72R

FORT PECK REPORTS


CITY           SKY/WX    TMP DP  RH WIND       PRES   REMARKS
FORT PECK        N/A     68  56  65 SE9         N/A
THE PINES        N/A     68  52  56 SE3         N/A

SOUTHEAST MONTANA


CITY           SKY/WX    TMP DP  RH WIND       PRES   REMARKS
BILLINGS       CLEAR     68  50  52 N5        29.94F
MILES CITY     CLEAR     65  53  65 NE6       29.93F
BAKER          CLEAR     60  56  86 CALM      29.97F
LIVINGSTON     CLEAR     67  48  50 SE10      29.99F

CENTRAL MONTANA


CITY           SKY/WX    TMP DP  RH WIND       PRES   REMARKS
HAVRE          CLEAR     64  54  69 CALM      29.86F
LEWISTOWN      NOT AVBL
GREAT FALLS    CLEAR     63  49  60 SE3       29.89F
CUT BANK         N/A     62  51  67 S8        29.89F
HELENA         CLEAR     68  46  45 CALM      29.93R
BUTTE          CLEAR     60  41  49 CALM      30.04S
BOZEMAN        CLEAR     66  50  56 W5        29.96F

WESTERN MONTANA


CITY           SKY/WX    TMP DP  RH WIND       PRES   REMARKS
MISSOULA       CLEAR     66  49  54 E6        29.88S
KALISPELL      NOT AVBL

NORTH DAKOTA


CITY           SKY/WX    TMP DP  RH WIND       PRES   REMARKS
WILLISTON      CLEAR     61  55  81 CALM      29.93F
DICKINSON      CLEAR     58  56  93 CALM      29.92F
MINOT          PTCLDY    67  61  81 S3        29.92F
BISMARCK       CLOUDY    65  61  87 SE7       29.93F

SOUTHERN SASKATCHEWAN


CITY           SKY/WX    TMP DP  RH WIND       PRES   REMARKS
REGINA         CLEAR     57  55  94 E6        29.89F
ESTEVAN        CLEAR     57  55  94 S3        29.92F
SWIFT CURRENT  CLEAR     57  55  94 S9        29.89F




USA.gov is the U.S. government's official web portal to all federal, state and local government web resources and services.